User: anonymous   Login
Location: Unspecified
(48.8330°N, 0.0000°E)
Time: 10:32:56
(UTC+00:00)
Language:

Envisat - Orbit

View from above orbital plane
View from above orbital plane
View from above satellite
View from above satellite

Ground track
Ground track

The orbit data is extracted from the following two-line orbital elements,

1 27386U 02009A   19229.09437840  .00000002  00000-0  14239-4 0  9990
2 27386  98.1475 247.0773 0001432  88.8119 337.8210 14.37954911914739
Epoch (UTC): 17 August 2019 02:15:54
Eccentricity: 0.0001432
inclination: 98.1475°
perigee height: 764 km
apogee height: 766 km
right ascension of ascending node: 247.0773°
argument of perigee: 88.8119°
revolutions per day: 14.37954911
mean anomaly at epoch: 337.8210°
orbit number at epoch: 91473

The dashed part of the orbit path shows where the satellite is in the earth's shadow,  

DLR